Location: ?????
(31.2652°N, 45.5390°E)
Time: 09:26:14
(UTC+00:00)

Daily predictions for brighter satellites

Satellite Brightness Start Highest point End
(mag) Time Altitude Azimuth Time Altitude Azimuth Time Altitude Azimuth
CZ-3 Stage 3 4.3 15:07:47 10° W 15:12:45 76° S 15:48:39 10° ESE
CZ-3 Stage 3 4.3 15:07:48 10° W 15:12:45 76° S 15:48:40 10° ESE
CZ-3 Stage 3 4.3 15:07:48 10° W 15:12:45 76° S 15:48:39 10° ESE
CZ-3 Stage 3 4.3 15:07:48 10° W 15:12:46 76° S 15:48:39 10° ESE
CZ-3 Stage 3 4.3 15:07:48 10° W 15:12:46 76° S 15:48:40 10° ESE
CZ-3 Stage 3 4.3 15:07:47 10° W 15:12:46 76° S 15:48:39 10° ESE
Cosmos 1538 Rocket 4.2 15:44:30 10° N 15:49:32 51° ENE 15:54:34 10° SSE
Unknown 3.7 15:45:28 10° NW 15:49:36 66° NE 15:53:42 10° SE
Cosmos 2082 Rocket 3.9 15:49:46 10° ESE 15:51:08 11° E 15:52:30 10° E
Unknown 3.7 15:47:08 10° NW 15:51:16 69° NE 15:55:23 10° SE
Unknown 3.6 15:50:23 10° NW 15:54:32 75° NE 15:58:39 10° SE
NOAA 11 4.4 15:49:38 10° SSE 15:54:58 56° ENE 16:00:21 10° N
Cosmos 1703 Rocket 3.6 15:51:31 10° N 15:55:57 87° W 16:00:19 10° S
Hubble Space Telescope 3.2 15:53:39 10° WSW 15:55:58 15° SSW 15:58:17 10° S
Unknown 3.6 15:52:06 10° NW 15:56:15 78° NE 16:00:23 10° SE
Unknown 3.6 15:53:45 10° NW 15:57:54 81° NE 16:02:02 10° SE
H-2A R/B 3.7 15:56:08 10° E 15:58:37 14° ENE 16:01:05 10° NE
Unknown 3.6 15:55:24 10° NW 15:59:32 84° NE 16:03:40 10° SE
Unknown 3.6 15:57:04 10° NW 16:01:13 88° NE 16:05:22 10° SE
YAOGAN 1 3.9 15:57:27 10° S 16:01:34 44° W 16:05:43 10° NNW
Unknown 3.8 16:00:41 10° NW 16:04:49 72° SW 16:08:55 10° SE
Cosmos 2266 Rocket 4.4 15:59:49 10° NNW 16:05:48 67° W 16:11:45 10° S
Unknown 3.8 16:02:18 10° NW 16:06:25 71° SW 16:10:31 10° SE
Cosmos 1939 Rocket 2.8 16:03:17 10° SSE 16:07:19 81° E 16:11:19 10° N
USA 186 3.0 16:06:25 13° ESE 16:07:35 16° ENE 16:09:18 10° NNE
Aureole 2 Rocket 3.2 16:05:38 10° NNE 16:07:47 21° ENE 16:09:21 14° ESE
Unknown 3.8 16:03:40 10° NW 16:07:47 75° SW 16:11:55 10° SE
Unknown 3.8 16:05:24 10° NW 16:09:31 75° SW 16:13:39 10° SE
Cosmos 1937 Rocket 4.3 16:07:38 10° SSE 16:12:07 29° E 16:16:38 10° NE
Unknown 3.9 16:08:42 10° NW 16:12:49 69° SW 16:16:55 10° SE
Unknown 3.9 16:10:23 10° NW 16:14:29 66° SW 16:18:34 10° SSE
Unknown 4.0 16:12:03 10° NW 16:16:09 63° SW 16:20:13 10° SSE
Nadezhda 2 Rocket 4.5 16:10:30 10° N 16:16:37 67° E 16:22:46 10° SSE
ARGOS 4.4 16:13:33 13° ESE 16:16:57 22° ENE 16:21:00 10° NNE
Unknown 4.0 16:13:42 10° NW 16:17:47 60° SW 16:21:51 10° SSE
Cosmos 1733 Rocket 3.2 16:13:58 10° SSE 16:18:06 47° E 16:22:14 10° NNE
ASTRO E2 3.4 16:14:23 10° W 16:18:09 42° SSW 16:21:05 15° SE
ADEOS Rocket 3.9 16:14:53 10° NE 16:20:41 33° E 16:26:59 10° SSE
FREGAT/IRIS 2.3 16:19:58 10° SSE 16:22:44 70° E 16:25:31 10° N
CZ-4 R/B 4.4 16:20:44 10° SW 16:22:59 15° W 16:25:15 10° WNW
Unknown 4.3 16:20:25 10° NW 16:24:25 51° SW 16:28:17 11° SSE
Unknown 4.4 16:22:04 10° NW 16:26:04 48° SW 16:29:52 11° SSE
Meteor 1-11 Rocket 4.3 16:21:05 10° SSE 16:26:27 38° E 16:31:53 10° NNE
OAO 3 Rocket 3.4 16:22:30 10° WNW 16:27:24 67° N 16:30:51 19° E
Unknown 4.5 16:23:47 10° NW 16:27:46 46° SW 16:31:30 11° SSE
Meteor 1-18 Rocket 4.3 16:22:52 10° N 16:28:36 89° E 16:34:23 10° S
Okean 3 3.7 16:26:26 10° N 16:30:29 45° E 16:33:41 15° SSE
Resurs 01 Rocket 3.2 16:31:55 16° E 16:32:30 17° ENE 16:35:18 10° NNE
COSMOS 2406 3.9 16:35:33 10° SSW 16:41:07 58° WNW 16:46:44 10° N
SEDSat Delta rocket 4.0 16:38:09 10° SW 16:42:17 32° SSE 16:43:46 27° ESE
Exosat Rocket 4.2 16:35:25 10° N 16:42:18 50° ENE 16:45:27 24° SE
Cosmos 1500 3.3 16:46:16 24° SSE 16:48:17 50° E 16:52:01 10° NNE
Cosmos 1553 Rocket 4.1 16:42:30 10° S 16:48:45 81° W 16:55:08 10° N
Meteor 1-19 Rocket 4.4 16:46:58 10° N 16:52:48 82° W 16:58:42 10° S
Cosmos 44 Rocket 3.1 16:50:44 10° NNW 16:55:27 69° ENE 16:57:11 37° SE
SPOT 3 Rocket 3.5 16:51:14 14° SSE 16:55:46 89° WSW 17:00:58 10° NNW
Cosmos 2112 Rocket 4.0 16:51:04 10° N 16:56:12 59° ENE 16:58:19 34° SE
Cosmos 2298 Rocket 4.5 16:57:37 34° SE 16:58:43 38° E 17:03:36 10° NE
OAO 2 Rocket 4.2 17:03:51 10° W 17:08:43 40° SSW 17:10:12 32° S
Meteor 1-13 Rocket 4.2 17:03:56 10° N 17:09:40 70° E 17:12:15 34° SSE
ASTEX 1 3.4 17:07:38 10° NNE 17:12:27 53° E 17:12:46 52° ESE
Cosmos 1656 3.8 17:09:21 10° N 17:14:54 55° ENE 17:15:53 48° ESE
DMSP B5D2-2 4.1 17:10:14 10° NNE 17:15:25 56° E 17:16:21 49° SE
Aureole 3 Rocket 2.9 17:14:18 31° SSW 17:15:50 63° W 17:19:00 10° N
S3M 4.5 17:10:24 10° SSW 17:16:37 61° W 17:22:46 10° N
Cosmos 1709 Rocket 4.3 17:12:13 10° N 17:18:03 44° E 17:18:35 43° E
SJ 16-02 2.2 17:14:20 10° SSW 17:18:36 51° WNW 17:22:55 10° N
Meteor 2-4 Rocket 3.7 17:14:06 10° NNW 17:19:27 73° W 17:22:23 28° S
Delta 2 Rocket 4.1 17:17:01 10° W 17:21:02 49° N 17:22:02 41° NE
Cosmos 1908 Rocket 3.6 17:20:11 35° SSW 17:22:03 77° W 17:26:31 10° N
Cosmos 1833 Rocket 3.2 17:18:05 10° SSW 17:23:38 59° WNW 17:29:12 10° NNE
Resurs 1-3 3.5 17:25:10 74° S 17:25:32 84° WSW 17:29:56 10° NNW
GP-B 3.7 17:22:33 10° N 17:25:48 44° NE 17:25:48 44° NE
MetOp-A 4.0 17:27:56 64° SE 17:28:36 73° ENE 17:33:56 10° N
Cosmos 1680 Rocket 4.3 17:27:49 10° NNW 17:32:49 47° WSW 17:34:56 30° SSW
Cosmos 2082 Rocket 2.4 17:28:53 10° SSW 17:34:28 71° WNW 17:40:07 10° NNE
Cosmos 2315 Rocket 3.9 17:32:29 39° S 17:35:04 82° E 17:41:25 10° N
USA 234 3.7 17:35:08 41° ENE 17:36:29 47° NE 17:42:41 10° NNW
H-2A R/B 2.6 17:35:47 34° SSW 17:37:35 51° W 17:42:23 10° NNW
Cosmos 1745 Rocket 4.4 17:32:07 10° NNW 17:38:07 59° W 17:41:37 26° SSW
Cosmos 158 Rocket 3.9 17:34:24 10° NNW 17:39:45 81° ENE 17:39:45 81° ENE
Meteor 2-14 Rocket 4.3 17:35:00 10° N 17:41:09 90° E 17:42:17 62° S
CZ-2C R/B 3.0 17:44:13 68° NNW 17:44:13 68° NNW 17:48:26 10° NNW
Cosmos 1536 4.4 17:42:47 28° WSW 17:44:01 34° W 17:47:46 10° NNW
CZ-2C R/B 3.5 17:39:58 10° NNE 17:43:20 38° NE 17:43:20 38° NE
Cosmos 1697 Rocket 2.9 17:41:43 10° NNW 17:46:39 57° NE 17:46:39 57° NE
Cosmos 2278 4.2 17:44:31 10° N 17:49:05 48° NNE 17:49:05 48° NNE
Spot 2 Rocket 4.0 17:56:20 53° N 17:56:20 53° N 18:00:12 10° N
ARGOS 4.4 17:55:04 28° SW 17:56:55 36° W 18:01:49 10° NNW
Resurs 01 Rocket 3.3 18:09:29 30° WNW 18:09:29 30° WNW 18:12:39 10° NNW
Milstar 3 Cent rocket 4.4 17:45:01 10° W 18:12:08 76° SSW 18:16:48 54° SE
Cosmos 1980 Rocket 3.3 18:07:05 10° N 18:10:34 35° NNE 18:10:34 35° NNE
USA 229 DEB 4.2 18:33:27 10° NNW 18:39:28 63° NNW 18:39:28 63° NNW
USA 229 4.2 18:33:34 10° NNW 18:39:33 62° NNW 18:39:33 62° NNW
Milstar 3 4.5 18:26:14 10° W 18:48:54 61° SSW 18:50:24 59° S
FALCON 9 R/B 3.7 18:47:20 10° W 19:12:41 77° NNW 19:12:41 77° NNW
SL-16 R/B 4.4 22:50:16 23° N 22:50:16 23° N 22:52:22 10° N
ADEOS II 3.8 23:12:57 10° NNE 23:15:32 28° NE 23:15:32 28° NE
CZ-2D R/B 4.4 23:37:49 10° NNW 23:38:48 14° NNW 23:38:48 14° NNW
Cosmos 1943 4.5 23:43:26 10° N 23:48:42 38° ENE 23:53:56 10° SE
ATLAS CENTAUR R/B 3.4 23:51:34 28° ESE 23:51:34 28° ESE 23:55:29 10° NE
USA 267 3.8 23:45:19 10° ESE 23:51:37 55° NE 23:57:57 10° NNW
Cosmos 2221 4.1 23:55:10 32° ENE 23:55:10 32° ENE 23:58:33 10° NNE
